KN1OBI-13 Weather Reports


Display with metric or nautical units.
time (UTC)temp
F
wind
direction
speed
MPH
gust
MPH
rain 1hr
in
rain 24hr
in
rain mn
in
humidity
%
barometer
mb
20260901114631 64 253 0.0 0.0 0.07 0.02 0.00 93 997.3
20260901113631 64 253 0.0 0.0 0.02 0.00 0.00 92 997.4
20260901112631 65 253 0.0 0.0 0.02 0.00 0.00 92 997.2
20260901111631 64 253 0.0 0.0 0.00 0.00 0.00 92 997.3
20260901110631 65 253 0.0 0.0 0.00 0.00 0.00 92 997.0
20260901105631 65 253 0.0 0.0 0.00 0.00 0.00 92 997.1
20260901104631 64 253 0.0 0.0 0.00 0.00 0.00 92 997.0
20260901103631 64 253 0.0 0.0 0.00 0.00 0.00 92 996.9
20260901102631 64 253 0.0 0.0 0.00 0.00 0.00 91 996.8
20260901101631 64 253 0.0 0.0 0.00 0.00 0.00 91 996.8
20260901100631 65 253 0.0 0.0 0.00 0.00 0.00 91 996.8
20260901095631 64 253 0.0 1.0 0.00 0.00 0.00 90 996.8
20260901094631 64 252 0.0 0.0 0.00 0.00 0.00 90 996.7
20260901093631 65 264 0.0 0.0 0.00 0.00 0.00 90 996.8
20260901092631 65 264 0.0 0.0 0.00 0.00 0.00 89 996.9
20260901091631 65 264 0.0 0.0 0.00 0.00 0.00 89 996.9
20260901090631 65 264 0.0 0.0 0.00 0.00 0.00 89 996.9
20260901085631 65 264 0.0 0.0 0.00 0.00 0.00 89 996.6
20260901084631 65 264 0.0 0.0 0.00 0.00 0.00 88 997.0
20260901083631 65 264 0.0 0.0 0.00 0.00 0.00 88 996.8
20260901082631 65 264 0.0 0.0 0.00 0.00 0.00 88 996.8
20260901081631 65 264 0.0 0.0 0.00 0.00 0.00 87 996.8
20260901080631 65 264 0.0 0.0 0.00 0.00 0.00 87 997.1
20260901075631 65 291 0.0 2.0 0.00 0.00 0.00 87 997.0
20260901074631 65 161 0.0 0.0 0.00 0.00 0.00 87 997.1
20260901073631 65 277 0.0 1.0 0.00 0.00 0.00 87 997.5
20260901072631 65 283 0.0 0.0 0.00 0.00 0.00 86 997.4
20260901071631 65 283 0.0 0.0 0.00 0.00 0.00 86 997.5
20260901070631 65 284 0.0 2.0 0.00 0.00 0.00 85 997.5
20260901065631 65 273 0.0 2.0 0.00 0.00 0.00 85 997.4
20260901064631 65 254 0.0 0.0 0.00 0.00 0.00 84 997.4
20260901063631 65 253 0.0 0.0 0.00 0.00 0.00 84 997.4
20260901062631 65 253 0.0 0.0 0.00 0.00 0.00 84 997.4
20260901061631 65 250 0.0 1.0 0.00 0.00 0.00 84 997.4
20260901060631 65 287 2.0 3.0 0.00 0.00 0.00 84 997.5
20260901055631 65 273 1.0 3.0 0.00 0.00 0.00 84 997.6
20260901054631 65 280 0.0 1.0 0.00 0.00 0.00 84 997.5
20260901053631 65 316 0.0 1.0 0.00 0.00 0.00 84 997.9
20260901052631 65 262 0.0 2.0 0.00 0.00 0.00 83 997.9
20260901051631 65 265 0.0 3.0 0.00 0.00 0.00 82 997.6
20260901050631 65 232 0.0 1.0 0.00 0.00 0.00 82 998.0
20260901045631 65 263 3.0 3.0 0.00 0.00 0.00 81 998.1
20260901044631 65 246 0.0 1.0 0.00 0.00 0.00 81 997.9
20260901043631 65 323 0.0 1.0 0.00 0.00 0.00 80 998.0
20260901042631 66 287 0.0 2.0 0.00 0.00 0.00 80 998.2
20260901041631 66 317 0.0 3.0 0.00 0.00 0.00 80 998.0
20260901040631 66 283 0.0 2.0 0.00 0.00 0.00 79 998.0
20260901035631 66 274 0.0 5.0 0.00 0.00 0.00 79 998.0
20260901034631 66 213 2.0 3.0 0.00 0.00 0.00 78 998.1
20260901033631 66 185 0.0 2.0 0.00 0.00 0.00 79 998.0
20260901032631 67 244 0.0 3.0 0.00 0.00 0.00 79 998.2
20260901031631 67 245 0.0 3.0 0.00 0.00 0.00 79 998.2
20260901030631 67 299 0.0 1.0 0.00 0.00 0.00 78 998.1
20260901025631 67 258 2.0 3.0 0.00 0.00 0.00 79 998.1
20260901024631 67 238 0.0 2.0 0.00 0.00 0.00 80 998.2
20260901023631 67 343 0.0 2.0 0.00 0.00 0.00 81 998.1
20260901022631 68 247 0.0 1.0 0.00 0.00 0.00 81 997.7
20260901021631 68 275 0.0 2.0 0.00 0.00 0.00 81 998.0
20260901020631 68 321 0.0 4.0 0.00 0.00 0.00 81 998.1
20260901015631 68 308 1.0 3.0 0.00 0.00 0.00 81 998.0
20260901014631 68 268 0.0 6.0 0.00 0.00 0.00 81 998.0
20260901013631 68 266 1.0 2.0 0.00 0.00 0.00 82 998.2
20260901012631 69 261 1.0 3.0 0.00 0.00 0.00 81 998.2
20260901011631 69 251 0.0 1.0 0.00 0.00 0.00 80 998.1
20260901010631 69 274 0.0 2.0 0.00 0.00 0.00 78 998.1
20260901005631 69 238 0.0 3.0 0.00 0.00 0.00 77 998.3
20260901004631 69 294 0.0 2.0 0.00 0.00 0.00 78 998.3
20260901003631 69 307 0.0 1.0 0.00 0.00 0.00 78 998.3
20260901002631 69 238 0.0 2.0 0.00 0.00 0.00 75 998.2
20260901001631 69 296 0.0 2.0 0.00 0.00 0.00 77 997.9
20260901000631 70 260 0.0 0.0 0.00 0.00 0.00 74 998.0
20260831235631 70 265 1.0 3.0 0.00 0.00 0.00 74 997.7
20260831234631 70 278 0.0 0.0 0.00 0.00 0.00 75 998.0
20260831233631 70 270 0.0 0.0 0.00 0.00 0.00 76 998.0
20260831232631 71 270 0.0 0.0 0.00 0.00 0.00 75 998.4
20260831231631 71 244 0.0 0.0 0.00 0.00 0.00 75 998.1
20260831230631 71 257 0.0 2.0 0.00 0.00 0.00 72 998.2
20260831225631 72 250 0.0 0.0 0.00 0.00 0.00 71 998.3
20260831224631 72 250 0.0 3.0 0.00 0.00 0.00 71 998.2
20260831223631 73 313 0.0 3.0 0.00 0.00 0.00 70 998.3
20260831222631 73 308 0.0 2.0 0.00 0.00 0.00 69 998.2
20260831221631 73 274 0.0 1.0 0.00 0.00 0.00 71 998.3
20260831220631 74 330 0.0 4.0 0.00 0.00 0.00 66 998.4
20260831215631 75 318 1.0 2.0 0.00 0.00 0.00 66 998.5
20260831214631 76 252 0.0 0.0 0.00 0.00 0.00 67 998.4
20260831213631 78 214 0.0 1.0 0.00 0.00 0.00 64 998.4
20260831212631 80 337 0.0 3.0 0.00 0.00 0.00 62 998.3
20260831211631 76 308 1.0 5.0 0.00 0.00 0.00 68 998.4
20260831210631 75 249 0.0 2.0 0.00 0.00 0.00 66 998.3
20260831205631 76 320 0.0 5.0 0.00 0.00 0.00 68 998.1
20260831204631 76 309 2.0 4.0 0.00 0.00 0.00 63 998.4
20260831203631 77 230 2.0 3.0 0.00 0.00 0.00 61 998.3
20260831202631 77 233 1.0 2.0 0.00 0.00 0.00 63 998.4
20260831201631 76 220 0.0 2.0 0.00 0.00 0.00 65 998.2
20260831200631 77 290 0.0 2.0 0.00 0.00 0.00 60 998.3
20260831195631 78 174 0.0 3.0 0.00 0.00 0.00 61 998.3
20260831194631 78 183 0.0 2.0 0.00 0.00 0.00 59 998.3
20260831193631 76 282 0.0 3.0 0.00 0.00 0.00 60 998.5
20260831192631 76 331 0.0 2.0 0.00 0.00 0.00 61 998.6
20260831191631 78 292 1.0 1.0 0.00 0.00 0.00 58 998.9
20260831190631 78 204 2.0 4.0 0.00 0.00 0.00 58 999.0
20260831185631 78 143 1.0 2.0 0.00 0.00 0.00 59 999.0
20260831184631 78 299 0.0 3.0 0.00 0.00 0.00 58 999.1
20260831183631 77 7 0.0 1.0 0.00 0.00 0.00 59 998.9
20260831182631 77 271 0.0 1.0 0.00 0.00 0.00 61 999.1
20260831181631 77 239 1.0 3.0 0.00 0.00 0.00 56 999.4
20260831180631 76 69 0.0 1.0 0.00 0.00 0.00 59 999.4
20260831175631 75 310 1.0 3.0 0.00 0.00 0.00 60 999.2
20260831174631 75 229 2.0 3.0 0.00 0.00 0.00 60 999.5
20260831173631 74 14 0.0 0.0 0.00 0.00 0.00 59 999.4
20260831172631 74 283 2.0 3.0 0.00 0.00 0.00 63 999.8
20260831171631 74 268 1.0 2.0 0.00 0.00 0.00 64 999.8
20260831170631 73 238 0.0 1.0 0.00 0.00 0.00 65 999.8
20260831165631 73 249 0.0 2.0 0.00 0.00 0.00 67 1000.0
20260831164631 73 259 0.0 1.0 0.00 0.00 0.00 67 1000.0
20260831163631 71 329 1.0 3.0 0.00 0.00 0.00 67 1000.2
20260831162631 71 291 1.0 2.0 0.00 0.00 0.00 71 1000.1
20260831161631 71 263 1.0 2.0 0.00 0.00 0.00 71 1000.4
20260831160631 71 295 0.0 1.0 0.00 0.00 0.00 70 1000.4
20260831155631 71 302 0.0 1.0 0.00 0.00 0.00 70 1000.4
20260831154631 71 287 0.0 0.0 0.00 0.00 0.00 66 1000.4
20260831153631 70 258 0.0 0.0 0.00 0.00 0.00 68 1000.5
20260831152631 71 257 0.0 0.0 0.00 0.00 0.00 66 1000.7
20260831151631 71 82 0.0 1.0 0.00 0.00 0.00 67 1000.6
20260831150631 70 56 0.0 1.0 0.00 0.00 0.00 68 1000.6
20260831145631 70 24 0.0 0.0 0.00 0.00 0.00 67 1000.4
20260831144631 70 18 0.0 4.0 0.00 0.00 0.00 67 1000.3
20260831143631 69 311 0.0 4.0 0.00 0.00 0.00 69 1000.5
20260831142631 69 303 0.0 1.0 0.00 0.00 0.00 70 1000.4
20260831141631 69 76 0.0 1.0 0.00 0.00 0.00 71 1000.4
20260831140631 68 36 0.0 1.0 0.00 0.00 0.00 74 1000.5
20260831135631 67 3 0.0 3.0 0.00 0.00 0.00 71 1000.5
20260831134631 67 82 0.0 2.0 0.00 0.00 0.00 73 1000.4
20260831133631 67 110 0.0 1.0 0.00 0.00 0.00 73 1000.5
20260831132631 66 132 0.0 1.0 0.00 0.00 0.00 73 1000.4
20260831131631 66 57 1.0 4.0 0.00 0.00 0.00 74 1000.3
20260831130631 66 109 0.0 1.0 0.00 0.00 0.00 78 1000.4
20260831125631 66 111 0.0 2.0 0.00 0.00 0.00 81 1000.5
20260831124631 65 93 0.0 1.0 0.00 0.00 0.00 84 1000.3
20260831123631 65 120 0.0 1.0 0.00 0.00 0.00 88 1000.5
20260831122631 65 358 0.0 2.0 0.00 0.00 0.00 91 1000.3
20260831121631 64 44 0.0 1.0 0.00 0.00 0.00 93 1000.1
20260831120631 63 272 0.0 0.0 0.00 0.00 0.00 94 1000.1
20260831115631 62 272 0.0 0.0 0.00 0.00 0.00 95 1000.0